Regional Weather Roundup
Issued by NWS

Home | Current Version | Previous Version | Graphics & Text | Print | Product List | Glossary On
Versions: 1 2 3 4 5 6 7 8 9 10 11 12 13 14 15 16 17 18 19 20 21 22 23 24 25 26 27 28 29 30 31 32 33 34 35 36 37 38 39 40 41 42 43 44 45 46 47 48 49 50
000
ASUS45 KSLC 311010
RWRUT

UTAH REGIONAL WEATHER ROUNDUP
NATIONAL WEATHER SERVICE SALT LAKE CITY UT
400 AM MDT FRI JUL 31 2015

UTZ001>011-023>025-311100-

NORTHERN UTAH

CITY           SKY/WX    TMP DP  RH WIND       PRES   REMARKS
BRIGHAM CITY   CLEAR     61  40  46 NW6       30.22S
HILL AFB       PTCLDY    65  30  26 E18G24    30.24S
LOGAN          CLEAR     54  40  59 CALM      30.27R
OGDEN          PTCLDY    68  30  24 CALM      30.22S
PROVO AIRPORT  PTCLDY    57  36  44 CALM      30.25S
SALT LAKE CITY PTCLDY    65  38  36 S3        30.21S
VERNAL         CLEAR     64  29  26 CALM      30.27S
WENDOVER       PTCLDY    70  30  23 CALM      30.21F
HEBER CITY     CLEAR     43  34  70 CALM      30.35S
WEST JORDAN    CLEAR     63  32  31 CALM      30.24S

$$

UTZ012>022-026-027-311100-

SOUTHERN/CENTRAL UTAH

CITY           SKY/WX    TMP DP  RH WIND       PRES   REMARKS
BLANDING       PTCLDY    63  55  75 N3        30.46S
BRYCE CANYON   CLOUDY    58  42  55 W6        30.45F
CEDAR CITY     CLOUDY    71  34  25 SE5       30.28S
DELTA          PTCLDY    67  22  18 E6        30.23R
HANKSVILLE     PTCLDY    68  30  24 CALM      30.22R
MILFORD        MOCLDY    65  19  17 S5        30.23S
MOAB/CYNLANDS  CLEAR     73  44  35 SE9       30.19R
PRICE          CLEAR     62  16  16 N8        30.29F
ST GEORGE      SUNNY     81  48  32 NE5       30.10S
KANAB          MOCLDY    70  48  46 N5        30.30F

$$

REGIONAL REPORTS     COLORADO/ARIZONA

CITY           SKY/WX    TMP DP  RH WIND       PRES   REMARKS
CRAIG, CO      CLEAR     44  31  60 SW3       30.37R
GRAND JUNCTION CLEAR     65  30  27 CALM      30.23R
RIFLE          CLEAR     59  30  33 CALM      30.31S
MONTROSE       PTCLDY    64  35  34 SE6       30.33S
CORTEZ         CLOUDY    64  58  80 CALM      30.37F
PAGE, AZ       CLOUDY    79  54  41 S12       30.20F
GRAND CANYON   CLOUDY    65  49  56 SE3       30.37F
KINGMAN        PTCLDY    76  53  44 E8        30.11S
FLAGSTAFF      PTCLDY    52  51  97 CALM      30.41F

$$

REGIONAL REPORTS    NEVADA/IDAHO/WYOMING

CITY           SKY/WX    TMP DP  RH WIND       PRES   REMARKS
LAS VEGAS, NV  CLOUDY    90  52  27 CALM      29.96S
ELY            MOCLDY    55  23  28 S10       30.36R
ELKO           PTCLDY    55  30  38 S5        30.27S
POCATELLO, ID  CLEAR     50  37  61 N3        30.26S
BURLEY         PTCLDY    52  41  66 CALM      30.21S
EVANSTON, WY   PTCLDY    56  23  27 S6        30.44S
ROCK SPRINGS   CLEAR     56  20  24 NE3       30.40S
KEMMERER       CLEAR     50  28  43 N8        30.45S

$$



USA.gov is the U.S. government's official web portal to all federal, state and local government web resources and services.